Weather History for San Diego Brown, CA

Change the Weather History Date:

Tuesday, May 13, 2014

  Actual Average Record
Temperature  
Mean Temperature 78 °F -  
Max Temperature 95 °F 69 °F 96 °F (2013)
Min Temperature 61 °F 50 °F 48 °F (1998)
Cooling Degree Days 13    
Growing Degree Days 28 (Base 50)    
Moisture  
Dew Point 24 °F    
Average Humidity 16    
Maximum Humidity 30    
Minimum Humidity 5    
Precipitation  
Precipitation 0.00 in - - ()
Sea Level Pressure  
Sea Level Pressure 30.01 in    
Wind  
Wind Speed 8 mph (ESE)    
Max Wind Speed 18 mph    
Max Gust Speed 31 mph    
Visibility 10 miles    
Events      
Averages and records for this station are not official NWS values.
T = Trace of Precipitation, MM = Missing Value Source: NWS Daily Summary

Daily Weather History Graph

Daily Weather History Graph

Search for Another Location

Airport:

Trip Planner

Search our weather history database for the weather conditions in past years. The results will help you decide how hot, cold, wet, or windy it might be!

Date:

Astronomy

May. 13, 2014 Rise Set
Actual Time 5:50 AM PDT 7:38 PM PDT
Civil Twilight 5:23 AM PDT 8:05 PM PDT
Nautical Twilight 4:51 AM PDT 8:37 PM PDT
Astronomical Twilight 4:16 AM PDT 9:12 PM PDT
Moon 6:48 PM PDT (5/13) 5:05 AM PDT (5/13)
Length of Visible Light 14h 41m
Length of Day
13h 47m
Waxing Gibbous, 99% of the Moon is Illuminated
May 13
Waxing Gibbous
May 14
Full
May 21
Last Quarter
May 28
New
Jun 5
First Quarter

Hourly Weather History & Observations

Time (PDT) Temp. Dew Point Humidity Pressure Visibility Wind Dir Wind Speed Gust Speed Precip Events Conditions
12:53 AM 61.0 °F 26.1 °F 26% 29.99 in 10.0 mi ESE 6.9 mph - N/A   Clear
1:53 AM 63.0 °F 26.1 °F 25% 29.98 in 10.0 mi SSE 6.9 mph - N/A   Clear
2:53 AM 63.0 °F 25.0 °F 24% 29.97 in 10.0 mi East 6.9 mph - N/A   Clear
3:53 AM 61.0 °F 25.0 °F 25% 29.98 in 10.0 mi SE 8.1 mph - N/A   Clear
4:53 AM 61.0 °F 21.9 °F 22% 29.98 in 10.0 mi East 5.8 mph - N/A   Clear
5:53 AM 66.2 °F 17.6 °F 15% 30.01 in 10.0 mi East 5.8 mph - N/A   Clear
6:53 AM 79.0 °F 17.1 °F 10% 30.01 in 10.0 mi ENE 10.4 mph 24.2 mph N/A   Clear
7:53 AM 82.9 °F 17.1 °F 9% 30.02 in 10.0 mi East 16.1 mph 24.2 mph N/A   Clear
8:53 AM 84.2 °F 17.6 °F 8% 30.04 in 10.0 mi ENE 18.4 mph 31.1 mph N/A   Clear
9:53 AM 88.0 °F 18.0 °F 8% 30.03 in 10.0 mi ENE 16.1 mph 25.3 mph N/A   Clear
10:53 AM 90.0 °F 17.1 °F 7% 30.03 in - North - - N/A   Unknown
11:53 AM - - N/A% 30.05 in - North - - N/A   Unknown
12:53 PM 91.9 °F 15.1 °F 6% 30.03 in 10.0 mi ENE 10.4 mph 20.7 mph N/A   Clear
1:53 PM 95.0 °F 14.0 °F 5% 30.02 in 10.0 mi North 6.9 mph 21.9 mph N/A   Clear
2:53 PM 93.0 °F 15.1 °F 6% 30.01 in 10.0 mi Variable 5.8 mph - N/A   Clear
3:53 PM 93.0 °F 16.0 °F 6% 29.99 in 10.0 mi West 9.2 mph - N/A   Clear
4:53 PM 93.0 °F 19.9 °F 7% 29.98 in 10.0 mi WNW 5.8 mph - N/A   Clear
5:53 PM 86.0 °F 37.9 °F 18% 29.98 in 10.0 mi West 10.4 mph - N/A   Clear
6:53 PM 82.9 °F 45.0 °F 26% 29.99 in 10.0 mi South 8.1 mph - N/A   Clear
7:53 PM 75.0 °F 41.0 °F 29% 30.00 in 10.0 mi SW 5.8 mph - N/A   Clear
8:53 PM 73.9 °F 41.0 °F 30% 30.02 in 10.0 mi Calm Calm - N/A   Clear
9:53 PM 75.0 °F 30.0 °F 19% 30.03 in 10.0 mi Calm Calm - N/A   Clear
10:53 PM 73.0 °F 24.1 °F 16% 30.04 in 10.0 mi WSW 3.5 mph - N/A   Clear
11:53 PM 75.0 °F 28.0 °F 18% 30.04 in 10.0 mi WNW 3.5 mph - N/A   Clear